Terug naar catalogus

THORAD AGENA D DEB

ActiefSSO
NORAD 4859·DEBRIS·🇺🇸 United States

Gelanceerd Apr 8, 1970 vanaf Vandenberg Space Force Base

Loading…

Volgende Passages

TLE

Source: Space-Track
1 04859U 70025EP  26224.23231416  .00000230  00000-0  35985-3 0  9996
2 04859  99.9487 324.1441 0050763 159.5538 257.1334 13.61281075775345

Volg THORAD AGENA D DEB in realtime met AllMySat

Download on the App Store